sat.trackr.live / text

‹ back to catalog

STARLINK-33848

NORAD 63705 · 2025-087J

PAYLOAD ACTIVE UNKNOWN

§ Identity

Operator
Country
US
Launch date
2025-04-28
Launch site
AFWTR
Launch vehicle
Mass (kg)
RCS (m²)

Purposes: comms

External: N2YO · Heavens-Above · Gunter

§ Orbital elements

Epoch: 2026-05-25T04:26:49.856064Z

Period
94.10 min
Inclination
53.1563°
Eccentricity
0.0001121
Mean motion
15.30209512 rev/d
Perigee alt
474.4 km
Apogee alt
476.0 km
Semi-major
6,853.3 km
B*
5.8092e-4
RAAN
224.0854°
Arg perigee
87.5192°
Mean anomaly
272.5937°
Rev number
6,090

§ Raw data

STARLINK-338481 63705U 25087J   26145.18529926  .00016890  00000+0  58092-3 0  99932 63705  53.1563 224.0854 0001121  87.5192 272.5937 15.30209512 60906

JSON: /api/v1/satellites/63705 · /tle

For live sub-satellite position, see the globe view (requires WebGL).

§ Visibility from observer

Set your observer location to see the next 7 days of passes ≥ 10°. The values pass through the URL so the page stays shareable.

No JS? Fill the form by hand. The geolocation button needs JavaScript.